Location: Sauerland
(51.1981°N, 7.8053°E)
Time: 19:22:39
(UTC+02:00)

ISS - Visible Passes

Search period start: 19 April 2025 00:00
Search period end: 29 April 2025 00:00
Orbit: 414 x 421 km, 51.6° (Epoch: 19 April)

Date Brightness Start Highest point End Pass type
(mag) Time Alt. Az. Time Alt. Az. Time Alt. Az.
21 Apr -1.2 05:18:42 10° S 05:20:32 14° SE 05:22:22 10° ESE visible
23 Apr -2.3 05:17:41 10° SSW 05:20:34 28° SSE 05:23:28 10° E visible
24 Apr -1.9 04:31:15 16° S 04:32:29 20° SE 04:34:59 10° E visible
25 Apr -1.4 03:44:45 13° SE 03:44:45 13° SE 03:46:09 10° ESE visible
25 Apr -3.3 05:17:39 12° SW 05:20:37 51° SSE 05:23:52 10° E visible
26 Apr -2.9 04:31:04 25° SSW 04:32:24 37° SSE 04:35:31 10° E visible
27 Apr -2.4 03:44:25 26° SE 03:44:25 26° SE 03:47:04 10° E visible
27 Apr -3.8 05:17:19 10° WSW 05:20:40 81° SSE 05:24:00 10° E visible
28 Apr -1.2 02:57:42 13° ESE 02:57:42 13° ESE 02:58:26 10° E visible
28 Apr -3.7 04:30:35 25° WSW 04:32:19 65° SSE 04:35:39 10° E visible
